"2010-06-18 00:00:00",210700,6.427,77.59,7.206,0.528,20.26,109.5005,23.61,24.74,12.29,0,111,13.24,24.45,39.6
"2010-06-18 00:00:30",210701,6.493,81.2,2.676,0.411,20.26,109.4985,23.61,24.73,12.17,0,111,13.24,24.44,43.2
"2010-06-18 00:01:00",210702,5.664,84.1,6.371,0.358,20.22,109.4994,23.61,24.73,11.85,0,111,13.24,24.44,46.1
"2010-06-18 00:01:30",210703,5.192,80.2,2.585,0.349,20.28,109.5004,23.61,24.72,12.2,0,111,13.24,24.45,42.2
"2010-06-18 00:02:00",210704,5.913,80.4,5.337,0.407,20.25,109.5001,23.61,24.73,12.38,0,111,13.24,24.44,42.4
"2010-06-18 00:02:30",210705,5.891,83.5,2.82,0.451,20.24,109.4985,23.61,24.73,12.14,0,111,13.24,24.44,45.5
"2010-06-18 00:03:00",210706,5.443,83.2,2.117,0.268,20.26,109.4973,23.6,24.73,12.19,0,111,13.24,24.44,45.2
"2010-06-18 00:03:30",210707,5.397,90.1,3.088,0.143,20.16,109.4984,23.61,24.72,11.92,0,111,13.25,24.44,52.1
"2010-06-18 00:04:00",210708,5.171,86.3,4.919,0.223,20.12,109.5032,23.62,24.74,11.81,0,111,13.25,24.45,48.3
"2010-06-18 00:04:30",210709,4.752,74.66,3.685,0.495,20.13,109.5133,23.64,24.72,12.11,0,111,13.25,24.48,36.7
"2010-06-18 00:05:00",210710,6.028,72.55,3.923,0.292,20.2,109.5049,23.62,24.74,12.15,0,111,13.25,24.46,34.6
"2010-06-18 00:05:30",210711,5.515,68.89,5.814,0.308,20.24,109.4981,23.61,24.72,12.2,0,111,13.24,24.44,30.9
"2010-06-18 00:06:00",210712,5.165,72.99,4.607,0.287,20.27,109.4981,23.61,24.73,12.49,0,111,13.24,24.44,35.0
"2010-06-18 00:06:30",210713,5.599,74.25,4.016,0.438,20.27,109.5071,23.63,24.72,12.22,0,111,13.24,24.46,36.2
"2010-06-18 00:07:00",210714,5.878,78.71,4.494,0.281,20.27,109.5234,23.67,24.72,12.27,0,111,13.24,24.50,40.7
"2010-06-18 00:07:30",210715,6.172,78.52,1.289,0.183,20.26,109.5116,23.64,24.73,12.53,0,111,13.24,24.47,40.5
"2010-06-18 00:08:00",210716,5.957,78.94,1.725,0.227,20.23,109.4995,23.61,24.73,12.29,0,111,13.24,24.44,40.9
"2010-06-18 00:08:30",210717,6.056,85,3.435,0.238,20.23,109.4979,23.6,24.71,12.34,0,111,13.25,24.44,47.0
"2010-06-18 00:09:00",210718,6.062,82.2,3.212,0.231,20.26,109.4973,23.6,24.72,12.32,0,111,13.25,24.44,44.2
"2010-06-18 00:09:30",210719,5.995,84.6,1.973,0.198,20.15,109.4973,23.6,24.71,12.33,0,111,13.25,24.44,46.6
"2010-06-18 00:10:00",210720,5.537,90,3.509,0.178,20.17,109.4973,23.6,24.71,12.33,0,111,13.24,24.44,52.0
"2010-06-18 00:10:30",210721,5.418,88.9,2.539,0.211,20.03,109.4973,23.6,24.72,12.3,0,111,13.24,24.44,50.9
"2010-06-18 00:11:00",210722,5.313,86.3,3.459,0.318,20.1,109.4973,23.6,24.7,12.19,0,111,13.24,24.44,48.3
"2010-06-18 00:11:30",210723,4.651,90.1,1.639,0.425,20.07,109.4973,23.6,24.71,12.45,0,111,13.24,24.44,52.1
"2010-06-18 00:12:00",210724,4.641,87,2.542,0.242,20.03,109.4973,23.6,24.71,12.14,0,111,13.24,24.44,49.0
"2010-06-18 00:12:30",210725,4.016,82.9,4.815,0.305,20.1,109.4973,23.6,24.7,12.29,0,111,13.24,24.44,44.9
"2010-06-18 00:13:00",210726,5.286,86.8,3.935,0.468,20.07,109.4973,23.6,24.7,12.57,0,111,13.24,24.44,48.8
"2010-06-18 00:13:30",210727,5.516,78.57,2.149,0.408,20.11,109.4973,23.6,24.69,12.88,0,111,13.24,24.44,40.6
"2010-06-18 00:14:00",210728,5.757,77.18,2.615,0.249,20.16,109.4973,23.6,24.69,13.1,0,111,13.24,24.44,39.2
"2010-06-18 00:14:30",210729,5.551,79.87,2.297,0.305,20.21,109.4973,23.6,24.69,13.17,0,111,13.24,24.44,41.9
"2010-06-18 00:15:00",210730,5.018,79.58,4.303,0.189,20.22,109.497,23.6,24.67,13.28,0,111,13.24,24.44,41.6
"2010-06-18 00:15:30",210731,4.969,81.5,3.625,0.278,20.24,109.4852,23.57,24.65,13.57,0,111,13.24,24.41,43.5
"2010-06-18 00:16:00",210732,4.321,82.5,4.368,0.252,20.2,109.4689,23.53,24.65,13.29,0,111,13.24,24.36,44.5
"2010-06-18 00:16:30",210733,5.329,90,3.883,0.524,20.17,109.4638,23.52,24.64,13.25,0,111,13.24,24.35,52.0
"2010-06-18 00:17:00",210734,5.593,87.1,5.808,0.365,20.18,109.4636,23.52,24.63,13.08,0,111,13.24,24.35,49.1
"2010-06-18 00:17:30",210735,5.305,87.5,5.996,0.364,20.22,109.4636,23.52,24.63,12.97,0,111,13.24,24.35,49.5
"2010-06-18 00:18:00",210736,5.192,85.1,4.714,0.212,20.15,109.4641,23.52,24.64,12.98,0,111,13.24,24.35,47.1
"2010-06-18 00:18:30",210737,5.499,83.3,1.755,0.286,20.23,109.4638,23.52,24.63,12.94,0,111,13.24,24.35,45.3
"2010-06-18 00:19:00",210738,5.718,85.8,1.329,0.281,20.18,109.4658,23.52,24.63,12.92,0,111,13.24,24.36,47.8
"2010-06-18 00:19:30",210739,6.114,83.5,3.097,0.168,20.19,109.4717,23.54,24.62,12.99,0,111,13.24,24.37,45.5
"2010-06-18 00:20:00",210740,5.685,86.9,3.923,0.263,20.17,109.4813,23.56,24.64,12.87,0,111,13.24,24.40,48.9
"2010-06-18 00:20:30",210741,5.065,81.8,3.295,0.391,20.19,109.4852,23.57,24.63,12.69,0,111,13.24,24.41,43.8
"2010-06-18 00:21:00",210742,4.743,90.2,4.154,0.196,20.24,109.488,23.58,24.64,12.75,0,111,13.24,24.41,52.2
"2010-06-18 00:21:30",210743,4.958,91.5,5.671,0.448,20.17,109.4931,23.59,24.64,12.55,0,111,13.24,24.43,53.5
"2010-06-18 00:22:00",210744,4.93,87,3.057,0.182,20.2,109.4973,23.6,24.65,12.52,0,111,13.24,24.44,49.0
"2010-06-18 00:22:30",210745,5.019,90.8,3.711,0.248,20.15,109.4973,23.6,24.65,12.74,0,111,13.24,24.44,52.8
"2010-06-18 00:23:00",210746,5.271,89.5,3.345,0.23,20.12,109.4973,23.6,24.65,12.86,0,111,13.24,24.44,51.5
"2010-06-18 00:23:30",210747,5.129,90,3.325,0.242,20.14,109.4973,23.6,24.67,13.04,0,111,13.24,24.44,52.0
"2010-06-18 00:24:00",210748,5.843,86.2,2.818,0.223,20.17,109.4973,23.6,24.64,13.05,0,111,13.24,24.44,48.2
"2010-06-18 00:24:30",210749,5.593,84.9,1.585,0.209,20.2,109.4973,23.6,24.67,13.03,0,111,13.24,24.44,46.9
"2010-06-18 00:25:00",210750,6.262,88.6,2.175,0.257,20.21,109.4973,23.6,24.65,12.81,0,111,13.24,24.44,50.6
"2010-06-18 00:25:30",210751,5.932,84.8,5.295,0.412,20.22,109.4973,23.6,24.66,12.73,0,111,13.24,24.44,46.8
"2010-06-18 00:26:00",210752,5.812,85.2,3.6,0.16,20.24,109.4973,23.6,24.65,12.99,0,111,13.24,24.44,47.2
"2010-06-18 00:26:30",210753,5.574,84.8,2.352,0.3,20.24,109.497,23.6,24.66,13.02,0,111,13.24,24.44,46.8
"2010-06-18 00:27:00",210754,5.739,86.2,2.028,0.209,20.25,109.497,23.6,24.65,12.79,0,111,13.25,24.44,48.2
"2010-06-18 00:27:30",210755,5.229,86.5,1.234,0.329,20.2,109.497,23.6,24.65,12.87,0,111,13.24,24.44,48.5
"2010-06-18 00:28:00",210756,5.493,88.3,1.934,0.259,20.12,109.497,23.6,24.65,12.7,0,111,13.24,24.44,50.3
"2010-06-18 00:28:30",210757,5.08,83.9,3.121,0.29,20.16,109.4973,23.6,24.65,12.88,0,111,13.24,24.44,45.9
"2010-06-18 00:29:00",210758,4.365,80.2,2.732,0.159,20.22,109.4956,23.6,24.65,13.25,0,111,13.24,24.43,42.2
"2010-06-18 00:29:30",210759,4.767,88.9,3.436,0.384,20.17,109.4883,23.58,24.64,13.65,0,111,13.24,24.41,50.9
"2010-06-18 00:30:00",210760,5.367,93,2.183,0.163,20.14,109.4801,23.56,24.64,13.13,0,111,13.24,24.39,55.0
"2010-06-18 00:30:30",210761,4.859,100.6,2.656,0.21,20.09,109.4821,23.56,24.63,13.03,0,111,13.24,24.40,62.6
"2010-06-18 00:31:00",210762,5.236,94.4,8.46,0.344,20.13,109.488,23.58,24.63,13.1,0,111,13.24,24.41,56.4
"2010-06-18 00:31:30",210763,5.084,85,2.713,0.246,20.22,109.4891,23.58,24.64,13.05,0,111,13.24,24.42,47.0
"2010-06-18 00:32:00",210764,4.861,81.6,5.364,0.202,20.22,109.4861,23.57,24.63,12.99,0,111,13.24,24.41,43.6
"2010-06-18 00:32:30",210765,4.972,82.2,2.239,0.203,20.21,109.4821,23.56,24.63,13.1,0,111,13.24,24.40,44.2
"2010-06-18 00:33:00",210766,5.31,86.5,2.469,0.24,20.23,109.4801,23.56,24.63,13.2,0,111,13.24,24.39,48.5
"2010-06-18 00:33:30",210767,5.394,85.9,2.699,0.237,20.18,109.4759,23.55,24.62,13.2,0,111,13.24,24.38,47.9
"2010-06-18 00:34:00",210768,5.19,82.2,1.001,0.116,20.25,109.4754,23.55,24.62,13.25,0,111,13.24,24.38,44.2
"2010-06-18 00:34:30",210769,4.923,82.5,1.769,0.143,20.25,109.4703,23.53,24.61,13.37,0,111,13.23,24.37,44.5
"2010-06-18 00:35:00",210770,4.675,83.7,2.654,0.23,20.28,109.4644,23.52,24.61,13.38,0,111,13.24,24.35,45.7
"2010-06-18 00:35:30",210771,4.534,81.3,3.582,0.152,20.25,109.465,23.52,24.61,13.25,0,111,13.23,24.35,43.3
"2010-06-18 00:36:00",210772,4.546,93.4,4.378,0.247,20.27,109.4644,23.52,24.6,13.33,0,111,13.23,24.35,55.4
"2010-06-18 00:36:30",210773,3.979,94.6,3.722,0.235,20.16,109.4652,23.52,24.61,13.41,0,111,13.23,24.35,56.6
"2010-06-18 00:37:00",210774,3.72,96.4,2.777,0.224,20.1,109.4664,23.52,24.61,13.43,0,111,13.23,24.36,58.4
"2010-06-18 00:37:30",210775,4.014,95.9,3.521,0.373,20.13,109.4641,23.52,24.61,13.7,0,111,13.23,24.35,57.9
"2010-06-18 00:38:00",210776,4.68,94,5.63,0.151,20.21,109.4636,23.52,24.59,14.07,0,111,13.23,24.35,56.0
"2010-06-18 00:38:30",210777,4.383,96.2,1.724,0.138,20.22,109.4636,23.52,24.59,13.87,0,111,13.23,24.35,58.2
"2010-06-18 00:39:00",210778,3.918,98.5,1.705,0.173,20.22,109.4652,23.52,24.6,13.34,0,111,13.23,24.35,60.5
"2010-06-18 00:39:30",210779,3.341,98.7,1.734,0.149,20.18,109.4779,23.55,24.59,13.22,0,111.1,13.23,24.39,60.7
"2010-06-18 00:40:00",210780,3.32,96.5,2.618,0.163,20.13,109.4779,23.55,24.6,13.94,0,111.1,13.23,24.39,58.5
"2010-06-18 00:40:30",210781,3.77,97.4,1.26,0.153,20.21,109.4754,23.55,24.61,13.92,0,111.1,13.23,24.38,59.4
"2010-06-18 00:41:00",210782,3.787,91.9,5.395,0.198,20.15,109.4785,23.55,24.6,13.84,0,111.1,13.23,24.39,53.9
"2010-06-18 00:41:30",210783,3.492,87.9,1.33,0.177,20.15,109.4723,23.54,24.59,13.85,0,111.1,13.23,24.37,49.9
"2010-06-18 00:42:00",210784,3.581,93.4,3.231,0.311,20.16,109.465,23.52,24.59,13.8,0,111.1,13.23,24.35,55.4
"2010-06-18 00:42:30",210785,2.904,97.1,4.203,0.198,20.06,109.4636,23.52,24.59,13.91,0,111.1,13.23,24.35,59.1
"2010-06-18 00:43:00",210786,3.255,93,4.619,0.307,20.11,109.4636,23.52,24.59,14.28,0,111.1,13.23,24.35,55.0
"2010-06-18 00:43:30",210787,3.567,90.1,4.885,0.222,20.11,109.4636,23.52,24.57,14.17,0,111,13.23,24.35,52.1
"2010-06-18 00:44:00",210788,3.8,85.8,2.884,0.188,20.11,109.4636,23.52,24.57,13.95,0,111,13.23,24.35,47.8
"2010-06-18 00:44:30",210789,3.755,85.3,2.74,0.116,20.16,109.4636,23.52,24.58,13.23,0,111,13.23,24.35,47.3
"2010-06-18 00:45:00",210790,3.8,96.4,5.394,0.196,20.15,109.465,23.52,24.58,13.11,0,111,13.23,24.35,58.4
"2010-06-18 00:45:30",210791,3.383,89,2.132,0.222,20.14,109.4709,23.54,24.59,13.15,0,111,13.23,24.37,51.0
"2010-06-18 00:46:00",210792,3.457,87.8,2.621,0.163,20.11,109.479,23.56,24.59,13.18,0,111.1,13.23,24.39,49.8
"2010-06-18 00:46:30",210793,3.75,87.6,2.907,0.377,20.15,109.4782,23.55,24.59,13.39,0,111.1,13.23,24.39,49.6
"2010-06-18 00:47:00",210794,3.698,88.9,3.55,0.24,20.17,109.4827,23.57,24.58,13.58,0,111.1,13.23,24.40,50.9
"2010-06-18 00:47:30",210795,4.039,93.1,2.267,0.218,20.16,109.4841,23.57,24.59,13.57,0,111.1,13.23,24.40,55.1
"2010-06-18 00:48:00",210796,4.337,91.6,2.427,0.14,20.13,109.4877,23.58,24.61,13.51,0,111.1,13.23,24.41,53.6
"2010-06-18 00:48:30",210797,4.032,88.6,2.097,0.258,20.16,109.4886,23.58,24.61,13.52,0,111.1,13.23,24.41,50.6
"2010-06-18 00:49:00",210798,4.037,84.9,3.062,0.175,20.21,109.4903,23.59,24.61,13.41,0,111.1,13.23,24.42,46.9
"2010-06-18 00:49:30",210799,4.735,91.1,1.535,0.251,20.25,109.492,23.59,24.62,13.49,0,111.1,13.22,24.42,53.1
"2010-06-18 00:50:00",210800,4.537,86.5,2.593,0.285,20.24,109.4962,23.6,24.62,13.56,0,111.1,13.22,24.43,48.5
"2010-06-18 00:50:30",210801,4.58,82.8,4.127,0.284,20.31,109.4973,23.6,24.62,13.65,0,111.1,13.22,24.44,44.8
"2010-06-18 00:51:00",210802,4.719,81.8,3.211,0.392,20.29,109.4973,23.6,24.61,13.66,0,111.1,13.22,24.44,43.8
"2010-06-18 00:51:30",210803,4.735,86.5,3.361,0.261,20.28,109.4973,23.6,24.64,13.59,0,111,13.22,24.44,48.5
"2010-06-18 00:52:00",210804,4.958,83.7,2.465,0.152,20.35,109.4973,23.6,24.64,13.7,0,111.1,13.22,24.44,45.7
"2010-06-18 00:52:30",210805,4.56,83.5,4.819,0.306,20.33,109.4973,23.6,24.63,13.8,0,111.1,13.22,24.44,45.5
"2010-06-18 00:53:00",210806,4.132,84.1,4.373,0.209,20.32,109.4973,23.6,24.66,13.94,0,111,13.22,24.44,46.1
"2010-06-18 00:53:30",210807,3.9,79.5,4.029,0.193,20.33,109.4973,23.6,24.65,14.17,0,111,13.23,24.44,41.5
"2010-06-18 00:54:00",210808,3.771,76.93,4.209,0.111,20.32,109.497,23.6,24.64,14.12,0,111,13.23,24.44,38.9
"2010-06-18 00:54:30",210809,3.527,69.32,1.254,0.168,20.29,109.4942,23.6,24.63,14.17,0,111,13.23,24.43,31.3
"2010-06-18 00:55:00",210810,3.264,66.96,2.424,0.139,20.3,109.4832,23.57,24.63,14.29,0,111,13.23,24.40,29.0
"2010-06-18 00:55:30",210811,3.661,75.51,4.606,0.229,20.32,109.47,23.53,24.63,14.2,0,111,13.23,24.37,37.5
"2010-06-18 00:56:00",210812,3.011,77.62,2.28,0.143,20.39,109.4641,23.52,24.61,14.14,0,111,13.24,24.35,39.6
"2010-06-18 00:56:30",210813,3.47,66.02,1.976,0.18,20.24,109.4636,23.52,24.61,13.9,0,111,13.24,24.35,28.0
"2010-06-18 00:57:00",210814,3.648,66.84,2.6,0.169,20.29,109.4636,23.52,24.6,13.89,0,111,13.24,24.35,28.8
"2010-06-18 00:57:30",210815,3.493,72.58,4.613,0.313,20.3,109.4636,23.52,24.58,14.39,0,111,13.23,24.35,34.6
"2010-06-18 00:58:00",210816,3.78,80.5,2.995,0.133,20.32,109.4636,23.52,24.57,14.5,0,111,13.24,24.35,42.5
"2010-06-18 00:58:30",210817,3.526,75.36,2.378,0.176,20.31,109.4636,23.52,24.58,14.56,0,111,13.24,24.35,37.4
"2010-06-18 00:59:00",210818,3.99,76.37,1.659,0.143,20.29,109.4636,23.52,24.57,13.98,0,111,13.24,24.35,38.4
"2010-06-18 00:59:30",210819,3.775,79.41,3.659,0.121,20.35,109.4636,23.52,24.58,14.08,0,111,13.23,24.35,41.4
"2010-06-18 01:00:00",210820,3.511,76.87,3.883,0.167,20.35,109.4636,23.52,24.56,14.17,0,111,13.23,24.35,38.9
"2010-06-18 01:00:30",210821,3.348,74.71,1.843,0.11,20.3,109.4636,23.52,24.57,14.06,0,111,13.23,24.35,36.7
"2010-06-18 01:01:00",210822,3.627,75.4,2.102,0.17,20.25,109.4636,23.52,24.57,14.19,0,111,13.23,24.35,37.4
"2010-06-18 01:01:30",210823,3.617,70.45,2.149,0.135,20.31,109.4636,23.52,24.57,14.08,0,111,13.23,24.35,32.4
"2010-06-18 01:02:00",210824,3.603,73.51,1.916,0.266,20.3,109.4636,23.52,24.58,14.1,0,111,13.23,24.35,35.5
"2010-06-18 01:02:30",210825,3.472,75.15,1.601,0.192,20.28,109.4636,23.52,24.56,14.07,0,111,13.23,24.35,37.2
"2010-06-18 01:03:00",210826,4.074,76.86,2.67,0.289,20.32,109.4636,23.52,24.57,14.07,0,111,13.23,24.35,38.9
"2010-06-18 01:03:30",210827,3.91,80.4,3.53,0.106,20.31,109.4636,23.52,24.58,14.17,0,111,13.23,24.35,42.4
"2010-06-18 01:04:00",210828,3.994,82.9,2.484,0.134,20.31,109.4636,23.52,24.58,14.2,0,111,13.23,24.35,44.9
"2010-06-18 01:04:30",210829,3.949,80.4,1.799,0.17,20.39,109.4636,23.52,24.56,14.16,0,111,13.24,24.35,42.4
"2010-06-18 01:05:00",210830,3.927,80.3,3.716,0.199,20.36,109.4636,23.52,24.54,14.12,0,111,13.24,24.35,42.3
"2010-06-18 01:05:30",210831,3.719,79.69,2.437,0.217,20.35,109.4636,23.52,24.57,14.14,0,111,13.24,24.35,41.7
"2010-06-18 01:06:00",210832,3.728,79.23,3.918,0.201,20.36,109.4636,23.52,24.56,14.12,0,111,13.23,24.35,41.2
"2010-06-18 01:06:30",210833,3.522,72.61,1.841,0.097,20.38,109.4636,23.52,24.57,14.12,0,111,13.23,24.35,34.6
"2010-06-18 01:07:00",210834,3.508,79.15,2.777,0.165,20.39,109.4636,23.52,24.57,14.14,0,111,13.22,24.35,41.2
"2010-06-18 01:07:30",210835,3.671,81.3,2.578,0.15,20.4,109.4636,23.52,24.56,14,0,111,13.22,24.35,43.3
"2010-06-18 01:08:00",210836,3.854,82,2.936,0.23,20.38,109.4641,23.52,24.57,13.95,0,111,13.22,24.35,44.0
"2010-06-18 01:08:30",210837,3.88,75.86,1.379,0.24,20.37,109.4641,23.52,24.58,13.97,0,111,13.22,24.35,37.9
"2010-06-18 01:09:00",210838,4.069,75.94,1.756,0.104,20.41,109.4636,23.52,24.58,13.63,0,111,13.22,24.35,37.9
"2010-06-18 01:09:30",210839,3.768,74.14,1.254,0.152,20.41,109.4636,23.52,24.57,13.47,0,111,13.22,24.35,36.1
"2010-06-18 01:10:00",210840,3.54,73.82,1.084,0.163,20.42,109.4636,23.52,24.57,13.61,0,111,13.22,24.35,35.8
"2010-06-18 01:10:30",210841,3.515,75.72,3.305,0.274,20.31,109.4636,23.52,24.57,13.68,0,111,13.22,24.35,37.7
"2010-06-18 01:11:00",210842,3.64,79.35,2.841,0.271,20.41,109.4636,23.52,24.57,13.93,0,111,13.22,24.35,41.3
"2010-06-18 01:11:30",210843,3.288,75.74,3.175,0.216,20.39,109.4636,23.52,24.57,13.91,0,111,13.23,24.35,37.7
"2010-06-18 01:12:00",210844,3.637,76.63,1.896,0.18,20.33,109.4636,23.52,24.57,14.01,0,111,13.23,24.35,38.6
"2010-06-18 01:12:30",210845,3.598,81.6,3.209,0.177,20.32,109.4636,23.52,24.57,14.12,0,111,13.23,24.35,43.6
"2010-06-18 01:13:00",210846,3.906,83.7,1.937,0.238,20.41,109.4633,23.52,24.56,14.05,0,111,13.23,24.35,45.7
"2010-06-18 01:13:30",210847,3.767,80.3,3.787,0.145,20.44,109.4636,23.52,24.57,13.97,0,111,13.23,24.35,42.3
"2010-06-18 01:14:00",210848,3.878,81.3,1.806,0.261,20.43,109.463,23.52,24.56,14.08,0,111,13.24,24.35,43.3
"2010-06-18 01:14:30",210849,3.983,85,1.968,0.228,20.4,109.4596,23.51,24.54,14.08,0,111,13.24,24.34,47.0
"2010-06-18 01:15:00",210850,4.199,86.6,1.525,0.106,20.4,109.4554,23.5,24.55,14.07,0,111,13.24,24.33,48.6
"2010-06-18 01:15:30",210851,4.65,89.7,1.374,0.12,20.46,109.4551,23.49,24.54,13.7,0,111,13.24,24.33,51.7
"2010-06-18 01:16:00",210852,4.46,86.9,2.939,0.473,20.45,109.4622,23.51,24.55,13.3,0,111,13.24,24.35,48.9
"2010-06-18 01:16:30",210853,4.446,89.1,2.588,0.377,20.4,109.4636,23.52,24.56,13.53,0,111,13.24,24.35,51.1
"2010-06-18 01:17:00",210854,4.743,91.6,1.158,0.1,20.47,109.4636,23.52,24.56,13.39,0,111,13.24,24.35,53.6
"2010-06-18 01:17:30",210855,4.828,91.5,0.66,0.102,20.49,109.4751,23.55,24.58,12.8,0,111,13.24,24.38,53.5
"2010-06-18 01:18:00",210856,4.854,91.9,0.611,0.051,20.5,109.4832,23.57,24.6,12.72,0,111,13.24,24.40,53.9
"2010-06-18 01:18:30",210857,4.878,91.2,0.754,0.046,20.56,109.4959,23.6,24.6,12.73,0,111,13.24,24.43,53.2
"2010-06-18 01:19:00",210858,4.96,91.1,0.659,0.061,20.58,109.5052,23.62,24.63,12.7,0,111,13.24,24.46,53.1
"2010-06-18 01:19:30",210859,4.622,93.6,1.306,0.235,20.58,109.5209,23.66,24.66,12.69,0,111,13.24,24.50,55.6
"2010-06-18 01:20:00",210860,4.208,96.2,1.359,0.087,20.51,109.531,23.69,24.7,12.59,0,111,13.24,24.52,58.2
"2010-06-18 01:20:30",210861,4.046,97.4,2.631,0.147,20.55,109.5428,23.72,24.71,12.59,0,111,13.23,24.55,59.4
"2010-06-18 01:21:00",210862,3.951,97.9,1.329,0.093,20.52,109.5538,23.75,24.74,12.54,0,111,13.23,24.58,59.9
"2010-06-18 01:21:30",210863,4.041,99.4,0.944,0.153,20.62,109.5639,23.77,24.77,12.46,0,111,13.23,24.61,61.4
"2010-06-18 01:22:00",210864,3.959,100.1,0.683,0.175,20.61,109.5648,23.78,24.78,12.49,0,111,13.22,24.61,62.1
"2010-06-18 01:22:30",210865,3.539,101.9,1.634,0.149,20.62,109.5783,23.81,24.8,12.47,0,111,13.22,24.65,63.9
"2010-06-18 01:23:00",210866,3.464,99.6,1.431,0.062,20.48,109.5816,23.82,24.83,12.47,0,111,13.22,24.65,61.6
"2010-06-18 01:23:30",210867,3.19,103.5,1.898,0.178,20.58,109.5845,23.83,24.83,12.48,0,111,13.22,24.66,65.5
"2010-06-18 01:24:00",210868,3.023,106.3,4.108,0.152,20.59,109.5909,23.84,24.84,12.33,0,111,13.22,24.68,68.3
"2010-06-18 01:24:30",210869,3.066,101.6,6.308,0.316,20.65,109.5982,23.86,24.85,12.06,0,111,13.22,24.70,63.6
"2010-06-18 01:25:00",210870,3.397,107.9,2.822,0.169,20.61,109.6027,23.87,24.88,12.06,0,111,13.22,24.71,69.9
"2010-06-18 01:25:30",210871,3.548,101.9,3.657,0.188,20.49,109.6151,23.91,24.88,12.3,0,111,13.21,24.74,63.9
"2010-06-18 01:26:00",210872,3.537,102.2,1.868,0.082,20.53,109.6131,23.9,24.9,12.52,0,111,13.21,24.74,64.2
"2010-06-18 01:26:30",210873,3.444,101.4,2.441,0.075,20.49,109.6019,23.87,24.9,12.64,0,111,13.21,24.71,63.4
"2010-06-18 01:27:00",210874,3.372,105.1,2.561,0.075,20.51,109.5985,23.86,24.9,12.5,0,111,13.21,24.70,67.1
"2010-06-18 01:27:30",210875,3.473,104.2,1.168,0.069,20.51,109.5974,23.86,24.88,12.58,0,111,13.22,24.70,66.2
"2010-06-18 01:28:00",210876,3.434,103.9,0.567,0.092,20.51,109.5974,23.86,24.87,12.59,0,111,13.22,24.70,65.9
"2010-06-18 01:28:30",210877,3.375,103.3,0.748,0.034,20.54,109.5946,23.85,24.87,12.61,0,111,13.22,24.69,65.3
"2010-06-18 01:29:00",210878,3.459,101.1,1.025,0.045,20.59,109.5828,23.82,24.87,12.66,0,111,13.22,24.66,63.1
"2010-06-18 01:29:30",210879,3.417,99.8,1.028,0.07,20.51,109.5816,23.82,24.86,12.58,0,111,13.22,24.65,61.8
"2010-06-18 01:30:00",210880,3.335,96.9,2.554,0.084,20.5,109.5816,23.82,24.84,12.81,0,111,13.22,24.65,58.9
"2010-06-18 01:30:30",210881,3.519,97.4,1.865,0.106,20.56,109.5693,23.79,24.84,12.84,0,111,13.22,24.62,59.4
"2010-06-18 01:31:00",210882,3.544,99.5,2.217,0.06,20.62,109.565,23.78,24.83,12.79,0,111,13.22,24.61,61.5
"2010-06-18 01:31:30",210883,3.461,98,1.35,0.086,20.52,109.5648,23.78,24.82,12.91,0,111,13.22,24.61,60.0
"2010-06-18 01:32:00",210884,3.307,97.8,1.013,0.087,20.49,109.5606,23.77,24.81,13.25,0,111,13.22,24.60,59.8
"2010-06-18 01:32:30",210885,3.265,97.7,1.962,0.055,20.5,109.549,23.74,24.8,13.31,0,111,13.22,24.57,59.7
"2010-06-18 01:33:00",210886,3.38,96.7,1.714,0.083,20.5,109.5473,23.73,24.78,13.22,0,111,13.22,24.57,58.7
"2010-06-18 01:33:30",210887,3.575,96.3,3.744,0.162,20.44,109.5355,23.7,24.76,13.57,0,111,13.22,24.54,58.3
"2010-06-18 01:34:00",210888,3.779,90.3,2.5,0.218,20.48,109.5184,23.66,24.74,13.58,0,111,13.22,24.49,52.3
"2010-06-18 01:34:30",210889,3.71,89.2,1.909,0.144,20.41,109.5128,23.64,24.72,13.57,0,111,13.22,24.48,51.2
"2010-06-18 01:35:00",210890,4.1,83,2.065,0.113,20.37,109.4928,23.59,24.69,13.72,0,111,13.23,24.43,45.0
"2010-06-18 01:35:30",210891,4.031,80.8,0.701,0.053,20.47,109.4804,23.56,24.65,13.72,0,111,13.23,24.39,42.8
"2010-06-18 01:36:00",210892,4.226,81.5,1.295,0.107,20.47,109.465,23.52,24.63,13.59,0,111,13.24,24.35,43.5
"2010-06-18 01:36:30",210893,4.598,81.2,0.914,0.128,20.47,109.4498,23.48,24.6,13.73,0,111,13.24,24.31,43.2
"2010-06-18 01:37:00",210894,4.684,83.7,1.563,0.203,20.46,109.4383,23.45,24.57,13.83,0,111,13.24,24.29,45.7
"2010-06-18 01:37:30",210895,4.919,85.5,1.523,0.132,20.48,109.4267,23.42,24.54,13.73,0,111,13.24,24.26,47.5
"2010-06-18 01:38:00",210896,4.96,83.3,1.217,0.106,20.5,109.4152,23.39,24.53,13.73,0,111,13.24,24.23,45.3
"2010-06-18 01:38:30",210897,5.036,84.9,0.608,0.084,20.49,109.4136,23.39,24.5,13.88,0,111,13.25,24.22,46.9
"2010-06-18 01:39:00",210898,4.927,84.8,0.988,0.093,20.49,109.414,23.39,24.49,13.79,0,111,13.25,24.22,46.8
"2010-06-18 01:39:30",210899,4.788,85,0.996,0.09,20.52,109.4061,23.37,24.47,13.68,0,111,13.25,24.20,47.0
"2010-06-18 01:40:00",210900,4.883,82.8,1.006,0.09,20.55,109.4034,23.36,24.45,13.55,0,111,13.24,24.20,44.8
"2010-06-18 01:40:30",210901,4.802,82.4,0.898,0.107,20.58,109.4019,23.36,24.45,13.45,0,111,13.24,24.19,44.4
"2010-06-18 01:41:00",210902,4.946,85,0.818,0.14,20.51,109.4027,23.36,24.44,13.48,0,111,13.24,24.19,47.0
"2010-06-18 01:41:30",210903,4.86,85.1,3.167,0.168,20.53,109.4,23.35,24.43,13.65,0,111,13.24,24.19,47.1
"2010-06-18 01:42:00",210904,5.01,83.2,1.796,0.249,20.52,109.3953,23.34,24.43,13.71,0,111,13.24,24.17,45.2
"2010-06-18 01:42:30",210905,5.131,83.9,1.336,0.117,20.48,109.3915,23.33,24.42,14.14,0,111,13.24,24.16,45.9
"2010-06-18 01:43:00",210906,4.987,84.2,2.083,0.141,20.51,109.3963,23.34,24.39,14.41,0,111,13.24,24.18,46.2
"2010-06-18 01:43:30",210907,5.256,83.7,1.98,0.159,20.56,109.3807,23.3,24.39,14.15,0,111,13.24,24.14,45.7
"2010-06-18 01:44:00",210908,5.382,86.2,1.056,0.101,20.58,109.3803,23.3,24.37,13.85,0,111,13.24,24.14,48.2
"2010-06-18 01:44:30",210909,5.364,83.4,2.051,0.115,20.54,109.3777,23.3,24.36,13.8,0,111,13.25,24.13,45.4
"2010-06-18 01:45:00",210910,5.323,82.9,1.34,0.1,20.57,109.3796,23.3,24.35,13.89,0,111,13.25,24.13,44.9
"2010-06-18 01:45:30",210911,5.226,81.2,0.809,0.094,20.64,109.3815,23.31,24.35,13.84,0,111,13.25,24.14,43.2
"2010-06-18 01:46:00",210912,5.106,78.15,0.765,0.058,20.56,109.3818,23.31,24.34,13.92,0,111,13.25,24.14,40.2
"2010-06-18 01:46:30",210913,4.999,78.63,0.939,0.062,20.65,109.3821,23.31,24.33,13.67,0,111,13.25,24.14,40.6
"2010-06-18 01:47:00",210914,5.148,78.18,1.162,0.158,20.67,109.3821,23.31,24.31,13.56,0,111,13.25,24.14,40.2
"2010-06-18 01:47:30",210915,5.301,76.21,0.789,0.092,20.63,109.3821,23.31,24.34,13.52,0,111,13.25,24.14,38.2
"2010-06-18 01:48:00",210916,4.917,75.75,0.757,0.152,20.64,109.3821,23.31,24.33,13.54,0,111,13.25,24.14,37.8
"2010-06-18 01:48:30",210917,5.365,76.5,1.313,0.152,20.6,109.3824,23.31,24.32,13.56,0,111,13.25,24.14,38.5
"2010-06-18 01:49:00",210918,5.3,77.74,0.746,0.111,20.68,109.3824,23.31,24.3,13.5,0,111,13.25,24.14,39.7
"2010-06-18 01:49:30",210919,5.38,75.71,0.874,0.164,20.58,109.3824,23.31,24.32,13.49,0,110.9,13.25,24.14,37.7
"2010-06-18 01:50:00",210920,5.567,76.38,1.797,0.158,20.58,109.3813,23.31,24.31,13.62,0,110.9,13.25,24.14,38.4
"2010-06-18 01:50:30",210921,5.375,77.9,0.987,0.076,20.63,109.3754,23.29,24.3,13.51,0,110.9,13.25,24.12,39.9
"2010-06-18 01:51:00",210922,5.49,77.74,1.294,0.1,20.6,109.3745,23.29,24.3,13.48,0,110.9,13.25,24.12,39.7